TimeCDT,TemperatureF,Dew PointF,Humidity,Sea Level PressureIn,VisibilityMPH,Wind Direction,Wind SpeedMPH,Gust SpeedMPH,PrecipitationIn,Events,Conditions,WindDirDegrees,DateUTC
12:52 AM,51.1,45.0,80,29.83,10.0,Calm,Calm,-,N/A,,Clear,0,2012-10-02 05:52:00
1:52 AM,51.1,45.0,80,29.84,10.0,Calm,Calm,-,N/A,,Clear,0,2012-10-02 06:52:00
2:52 AM,48.9,44.1,83,29.84,10.0,Calm,Calm,-,N/A,,Clear,0,2012-10-02 07:52:00
3:52 AM,48.9,44.1,83,29.84,10.0,Calm,Calm,-,N/A,,Clear,0,2012-10-02 08:52:00
4:52 AM,50.0,45.0,83,29.86,10.0,Calm,Calm,-,N/A,,Clear,0,2012-10-02 09:52:00
5:52 AM,48.9,44.1,83,29.86,10.0,WNW,3.5,-,N/A,,Clear,300,2012-10-02 10:52:00
6:52 AM,50.0,46.0,86,29.88,10.0,WNW,3.5,-,N/A,,Clear,300,2012-10-02 11:52:00
7:52 AM,50.0,46.4,87,29.90,10.0,NW,3.5,-,N/A,,Clear,310,2012-10-02 12:52:00
8:52 AM,53.1,45.0,74,29.91,10.0,NW,6.9,-,N/A,,Clear,320,2012-10-02 13:52:00
9:52 AM,57.0,46.9,69,29.92,10.0,NNW,8.1,-,N/A,,Clear,330,2012-10-02 14:52:00
10:52 AM,61.0,46.9,60,29.91,10.0,Calm,Calm,-,N/A,,Clear,0,2012-10-02 15:52:00
11:52 AM,64.9,48.9,56,29.91,10.0,Variable,6.9,-,N/A,,Clear,0,2012-10-02 16:52:00
12:52 PM,66.9,48.9,52,29.90,10.0,WNW,8.1,-,N/A,,Clear,300,2012-10-02 17:52:00
1:52 PM,69.1,51.1,53,29.87,10.0,NNW,11.5,-,N/A,,Clear,330,2012-10-02 18:52:00
2:52 PM,70.0,50.0,49,29.86,10.0,WNW,8.1,-,N/A,,Clear,300,2012-10-02 19:52:00
3:52 PM,70.0,50.0,49,29.86,10.0,Variable,6.9,-,N/A,,Clear,0,2012-10-02 20:52:00
4:52 PM,70.0,51.1,51,29.87,10.0,NW,6.9,-,N/A,,Clear,320,2012-10-02 21:52:00
5:52 PM,68.0,50.0,52,29.87,10.0,NW,6.9,-,N/A,,Clear,310,2012-10-02 22:52:00
6:52 PM,64.9,51.1,61,29.88,9.0,NW,4.6,-,N/A,,Clear,310,2012-10-02 23:52:00
7:52 PM,59.0,51.1,75,29.90,10.0,Calm,Calm,-,N/A,,Clear,0,2012-10-03 00:52:00
8:52 PM,55.4,50.0,82,29.91,10.0,Calm,Calm,-,N/A,,Clear,0,2012-10-03 01:52:00
9:52 PM,54.0,48.9,83,29.92,10.0,Calm,Calm,-,N/A,,Clear,0,2012-10-03 02:52:00
10:52 PM,53.1,48.0,83,29.92,10.0,Calm,Calm,-,N/A,,Clear,0,2012-10-03 03:52:00
11:52 PM,52.0,48.0,86,29.92,10.0,Calm,Calm,-,N/A,,Clear,0,2012-10-03 04:52:00